Location: Bernay
(48.6766°N, 2.9386°E)
Time: 11:38:57
(UTC+00:00)

NOSS 2-3 (D) - Pass Details

Date: 12 January 2026
Orbit: 497 x 1701 km, 63.3° (Epoch: 24 April)

Event Time Altitude Azimuth Distance (km) Brightness Sun altitude
Rises 17:30:30 0° 318° (NW) 2,994 7.4 -11.9°
Reaches altitude 10° 17:32:33 10° 320° (NW) 2,197 6.7 -12.2°
Maximum altitude 17:37:35 83° 48° (NE) 877 4.2 -13.0°
Drops below altitude 10° 17:44:24 10° 137° (SE) 2,939 6.8 -14.1°
Sets 17:47:29 0° 138° (SE) 4,087 7.5 -14.6°
